TimeEDT,TemperatureF,Dew PointF,Humidity,Sea Level PressureIn,VisibilityMPH,Wind Direction,Wind SpeedMPH,Gust SpeedMPH,PrecipitationIn,Events,Conditions,WindDirDegrees,DateUTC
12:01 AM,60.8,53.6,77,30.09,10.0,South,3.5,-,N/A,,Clear,180,2012-10-24 04:01:00
12:22 AM,60.8,53.6,77,30.09,10.0,Calm,Calm,-,N/A,,Clear,0,2012-10-24 04:22:00
12:43 AM,60.8,53.6,77,30.09,10.0,SSW,3.5,-,N/A,,Clear,200,2012-10-24 04:43:00
1:04 AM,57.2,53.6,88,30.09,10.0,Calm,Calm,-,N/A,,Clear,0,2012-10-24 05:04:00
1:25 AM,59.0,53.6,82,30.09,10.0,Calm,Calm,-,N/A,,Clear,0,2012-10-24 05:25:00
2:07 AM,59.0,53.6,82,30.09,10.0,Calm,Calm,-,N/A,,Clear,0,2012-10-24 06:07:00
2:31 AM,57.2,53.6,88,30.09,10.0,Calm,Calm,-,N/A,,Clear,0,2012-10-24 06:31:00
2:52 AM,59.0,53.6,82,30.09,10.0,Calm,Calm,-,N/A,,Clear,0,2012-10-24 06:52:00
3:13 AM,57.2,53.6,88,30.09,10.0,Calm,Calm,-,N/A,,Clear,0,2012-10-24 07:13:00
3:34 AM,59.0,53.6,82,30.09,10.0,Calm,Calm,-,N/A,,Clear,0,2012-10-24 07:34:00
3:55 AM,59.0,53.6,82,30.09,10.0,Calm,Calm,-,N/A,,Clear,0,2012-10-24 07:55:00
4:16 AM,57.2,51.8,82,30.09,10.0,Calm,Calm,-,N/A,,Clear,0,2012-10-24 08:16:00
4:37 AM,59.0,53.6,82,30.09,10.0,Calm,Calm,-,N/A,,Clear,0,2012-10-24 08:37:00
4:58 AM,57.2,53.6,88,30.09,10.0,Calm,Calm,-,N/A,,Clear,0,2012-10-24 08:58:00
5:19 AM,57.2,51.8,82,30.10,10.0,Calm,Calm,-,N/A,,Clear,0,2012-10-24 09:19:00
5:43 AM,57.2,51.8,82,30.10,10.0,Calm,Calm,-,N/A,,Scattered Clouds,0,2012-10-24 09:43:00
6:04 AM,57.2,53.6,88,30.11,10.0,Calm,Calm,-,N/A,,Clear,0,2012-10-24 10:04:00
6:25 AM,57.2,51.8,82,30.11,10.0,Calm,Calm,-,N/A,,Clear,0,2012-10-24 10:25:00
6:46 AM,57.2,51.8,82,30.12,10.0,Calm,Calm,-,N/A,,Clear,0,2012-10-24 10:46:00
8:31 AM,57.2,53.6,88,30.14,10.0,Calm,Calm,-,N/A,,Clear,0,2012-10-24 12:31:00
8:52 AM,60.8,53.6,77,30.14,10.0,Calm,Calm,-,N/A,,Clear,0,2012-10-24 12:52:00
9:13 AM,60.8,55.4,82,30.14,10.0,Calm,Calm,-,N/A,,Clear,0,2012-10-24 13:13:00
11:01 AM,69.8,55.4,60,30.14,10.0,Calm,Calm,-,N/A,,Clear,0,2012-10-24 15:01:00
11:22 AM,69.8,55.4,60,30.14,10.0,Calm,Calm,-,N/A,,Clear,0,2012-10-24 15:22:00
11:43 AM,71.6,55.4,57,30.14,10.0,Calm,Calm,-,N/A,,Clear,0,2012-10-24 15:43:00
12:04 PM,73.4,51.8,47,30.14,10.0,West,5.8,-,N/A,,Scattered Clouds,280,2012-10-24 16:04:00
12:25 PM,73.4,53.6,50,30.13,10.0,West,5.8,-,N/A,,Scattered Clouds,270,2012-10-24 16:25:00
1:07 PM,75.2,51.8,44,30.11,10.0,West,8.1,-,N/A,,Clear,260,2012-10-24 17:07:00
1:28 PM,75.2,51.8,44,30.11,10.0,WSW,8.1,-,N/A,,Clear,250,2012-10-24 17:28:00
1:52 PM,75.2,51.8,44,30.10,10.0,Calm,Calm,-,N/A,,Clear,0,2012-10-24 17:52:00
2:13 PM,77.0,50.0,39,30.09,10.0,WSW,4.6,-,N/A,,Clear,240,2012-10-24 18:13:00
2:55 PM,77.0,51.8,41,30.09,10.0,WNW,5.8,-,N/A,,Clear,290,2012-10-24 18:55:00
3:16 PM,78.8,48.2,34,30.08,10.0,West,3.5,-,N/A,,Clear,280,2012-10-24 19:16:00
3:37 PM,77.0,48.2,36,30.08,10.0,West,6.9,-,N/A,,Clear,270,2012-10-24 19:37:00
3:58 PM,77.0,48.2,36,30.08,10.0,SW,8.1,-,N/A,,Clear,230,2012-10-24 19:58:00
4:19 PM,78.8,46.4,32,30.08,10.0,West,4.6,-,N/A,,Clear,260,2012-10-24 20:19:00
4:40 PM,78.8,46.4,32,30.09,10.0,West,5.8,-,N/A,,Clear,260,2012-10-24 20:40:00
5:01 PM,78.8,46.4,32,30.09,10.0,West,8.1,-,N/A,,Clear,270,2012-10-24 21:01:00
5:22 PM,77.0,48.2,36,30.10,10.0,WSW,5.8,-,N/A,,Clear,250,2012-10-24 21:22:00
5:43 PM,75.2,48.2,38,30.10,10.0,West,4.6,-,N/A,,Clear,260,2012-10-24 21:43:00
6:07 PM,73.4,50.0,44,30.10,10.0,WSW,3.5,-,N/A,,Clear,250,2012-10-24 22:07:00
6:28 PM,73.4,51.8,47,30.10,10.0,Calm,Calm,-,N/A,,Clear,0,2012-10-24 22:28:00
6:49 PM,71.6,50.0,46,30.11,10.0,Calm,Calm,-,N/A,,Clear,0,2012-10-24 22:49:00
7:10 PM,71.6,50.0,46,30.12,10.0,Calm,Calm,-,N/A,,Clear,0,2012-10-24 23:10:00
7:31 PM,68.0,51.8,56,30.12,10.0,Calm,Calm,-,N/A,,Mostly Cloudy,0,2012-10-24 23:31:00
7:52 PM,68.0,51.8,56,30.12,10.0,Calm,Calm,-,N/A,,Overcast,0,2012-10-24 23:52:00
8:55 PM,66.2,51.8,60,30.13,10.0,Calm,Calm,-,N/A,,Mostly Cloudy,0,2012-10-25 00:55:00
9:16 PM,66.2,53.6,64,30.14,10.0,Calm,Calm,-,N/A,,Overcast,0,2012-10-25 01:16:00
9:37 PM,66.2,51.8,60,30.14,10.0,SE,3.5,-,N/A,,Overcast,130,2012-10-25 01:37:00
10:01 PM,66.2,51.8,60,30.14,10.0,Calm,Calm,-,N/A,,Overcast,0,2012-10-25 02:01:00
10:22 PM,66.2,51.8,60,30.15,10.0,Calm,Calm,-,N/A,,Overcast,0,2012-10-25 02:22:00
10:43 PM,66.2,51.8,60,30.14,10.0,SE,3.5,-,N/A,,Overcast,130,2012-10-25 02:43:00
11:04 PM,66.2,51.8,60,30.14,10.0,Calm,Calm,-,N/A,,Overcast,0,2012-10-25 03:04:00
11:25 PM,66.2,53.6,64,30.14,10.0,Calm,Calm,-,N/A,,Overcast,0,2012-10-25 03:25:00
11:46 PM,66.2,51.8,60,30.15,10.0,SE,4.6,-,N/A,,Overcast,140,2012-10-25 03:46:00